Regional Weather Roundup
Issued by NWS State College, PA

Home | Current Version | Previous Version | Text Only | Print | Product List | Glossary Off
Versions: 1 2 3 4 5 6 7 8 9 10 11 12 13 14 15 16 17 18 19 20 21 22 23 24 25 26 27 28 29 30 31 32 33 34 35 36 37 38 39 40 41 42 43 44 45 46 47 48 49 50

000
ASUS41 KCTP 040203
RWRCTP

REGIONAL WEATHER ROUNDUP
NATIONAL WEATHER SERVICE STATE COLLEGE PA
900 PM EST TUE MAR 03 2015

Note: "fair" indicates few or no clouds below 12,000 feet with no
significant weather and/or obstructions to visibility.

* = STATION THAT DOES NOT REPORT PRECIPITATION /E.G. RAIN...SNOW...ETC/
    THUNDER OR FOG.

PAZ002>004-007>009-013>016-020>023-029>032-040300-
WESTERN PENNSYLVANIA

CITY           SKY/WX    TMP DP  RH WIND       PRES   REMARKS
ERIE           CLOUDY    39  35  86 W18G31    29.69R FOG
MEADVILLE        N/A     39  37  92 SW9       29.67R
FRANKLIN*      CLOUDY    39  37  93 W10G17    29.71R
NEW CASTLE     CLOUDY    42  42 100 SW13      29.72R
BEAVER COUNTY  DRIZZLE   45  45 100 W12G17    29.71R
BUTLER*        CLOUDY    45  43  93 W13       29.73R
PITTSBURGH INT LGT RAIN  49  47  93 SW12G21   29.71S
PITTSBURGH     LGT RAIN  48  44  86 SW18G28   29.71F FOG
INDIANA*       FOG       45  45 100 W10       29.75S VSB 1/4
LATROBE        LGT RAIN  48  48 100 SW12G23   29.76R FOG
WASHINGTON CO* CLOUDY    50  48  93 SW13G18   29.75F
$$

PAZ004>006-010>012-017>019-024>028-033>037-041-042-045-046-049>053-040300-
CENTRAL PENNSYLVANIA

CITY           SKY/WX    TMP DP  RH WIND       PRES   REMARKS
BRADFORD       LGT RAIN  34  32  92 S8        29.66R FOG
DUBOIS         CLOUDY    35  34  96 S3        29.68F FOG
CLEARFIELD     FRZ RAIN  32  30  92 E3        29.73F FOG
JOHNSTOWN      RAIN      45  43  93 SW14      29.72R VSB 3/4
ALTOONA        MIX PCPN  32  29  88 S8        29.79F FOG
STATE COLLEGE  FRZ RAIN  30  28  93 SW6       29.80F
WILLIAMSPORT   SLEET     28  22  78 E10       29.86F
SELINSGROVE    MIX PCPN  30  25  81 S7        29.89F
FT INDIANTOWN  FRZ DRZL  29  27  92 S3        29.92F
CAPITAL CITY   FRZ RAIN  31  27  85 VRB5      29.91F
HARRISBURG     FRZ RAIN  31  27  85 SE5       29.91F FOG
YORK           CLOUDY    32  28  85 SW6       29.91F
$$

PAZ038>040-043-044-047-048-054-055-060>062-067>071-040300-
EASTERN PENNSYLVANIA

CITY           SKY/WX    TMP DP  RH WIND       PRES   REMARKS
SCRANTON       CLOUDY    28  21  75 S9G20     29.83F
MOUNT POCONO   MIX PCPN  24  20  84 S12       29.82F FOG     WCI  13
ALLENTOWN      FRZ RAIN  31  28  89 S5        29.94F FOG
QUAKERTOWN*    CLOUDY    32  30  93 CALM      29.94F
READING        FRZ RAIN  32  28  85 S8        29.94F
LANCASTER      FRZ RAIN  31  29  92 S5        29.93F FOG
COATESVILLE    LGT RAIN  32  32 100 S6        29.93F
POTTSTOWN      FRZ RAIN  31  31 100 S6        29.96F FOG
BLUE BELL      CLOUDY    34  32  93 SW7       29.96F
DOYLESTOWN     FRZ RAIN  30  30 100 S6        29.95F
WILLOW GROVE   NOT AVBL
NORTH PHILA    LGT RAIN  34  29  82 SW9       30.00F
PHILADELPHIA   FRZ RAIN  33  30  88 S12       29.99F FOG
$$



USA.gov is the U.S. government's official web portal to all federal, state and local government web resources and services.